When you browse on this site, cookies collect data to enhance your experience and personalize the content and advertising you see.
Visit our Privacy Policy to learn more. By continuing to use the site, you agree to this use of cookies and data.
  • In Latvia
  • List of Countries
  • For 7 days
  • Water Temperature
  • Satellite Maps
  • Weather Map
  • Weather Widgets
  • user-avatar
    Login

    Hourly Weather Rhodes

    Today, 23 February, Saturday

    Time Temperature Precipitation Wind Pressure Humidity
    00:00 +10°C° 0 mm 2 mps 732 mmHg 59%
    01:00 +11°C° 0 mm 1 mps 732 mmHg 59%
    02:00 +11°C° 0 mm 1 mps 732 mmHg 60%
    03:00 +11°C° 0 mm 1 mps 732 mmHg 60%
    04:00 +11°C° 0 mm 1 mps 732 mmHg 60%
    05:00 +10°C° 0 mm 2 mps 731 mmHg 61%
    06:00 +11°C° 0 mm 3 mps 731 mmHg 61%
    07:00 +11°C° 0 mm 4 mps 732 mmHg 62%
    08:00 +12°C° 0 mm 5 mps 732 mmHg 63%
    09:00 +12°C° 0.2 mm 5 mps 732 mmHg 64%
    10:00 +13°C° 0.2 mm 6 mps 732 mmHg 64%
    11:00 +14°C° 0.2 mm 6 mps 732 mmHg 65%
    12:00 +14°C° 1.1 mm 6 mps 732 mmHg 66%
    13:00 +14°C° 1.1 mm 6 mps 732 mmHg 67%
    14:00 +14°C° 1.1 mm 6 mps 732 mmHg 68%
    15:00 +14°C° 1.2 mm 6 mps 732 mmHg 70%
    16:00 +13°C° 1.2 mm 6 mps 732 mmHg 71%
    17:00 +13°C° 1.2 mm 5 mps 732 mmHg 73%
    18:00 +12°C° 0.8 mm 5 mps 732 mmHg 73%
    19:00 +12°C° 0.8 mm 5 mps 733 mmHg 74%
    20:00 +12°C° 0.8 mm 5 mps 733 mmHg 74%
    21:00 +12°C° 0.6 mm 5 mps 733 mmHg 74%
    22:00 +12°C° 0.6 mm 5 mps 733 mmHg 74%
    23:00 +12°C° 0.6 mm 5 mps 734 mmHg 74%

    Tomorrow, 24 February, Sunday

    Time Temperature Precipitation Wind Pressure Humidity
    00:00 +12°C° 0.3 mm 5 mps 734 mmHg 74%
    01:00 +12°C° 0.3 mm 5 mps 734 mmHg 74%
    02:00 +11°C° 0.3 mm 6 mps 734 mmHg 74%
    03:00 +11°C° 0.6 mm 6 mps 733 mmHg 76%
    04:00 +11°C° 0.6 mm 7 mps 733 mmHg 77%
    05:00 +11°C° 0.6 mm 7 mps 733 mmHg 79%
    06:00 +11°C° 1.3 mm 8 mps 734 mmHg 79%
    07:00 +11°C° 1.3 mm 8 mps 734 mmHg 80%
    08:00 +11°C° 1.3 mm 9 mps 734 mmHg 80%
    09:00 +11°C° 1.3 mm 8 mps 734 mmHg 79%
    10:00 +11°C° 1.3 mm 8 mps 735 mmHg 78%
    11:00 +12°C° 1.3 mm 8 mps 735 mmHg 77%
    12:00 +12°C° 0.7 mm 8 mps 735 mmHg 76%
    13:00 +12°C° 0.7 mm 8 mps 734 mmHg 76%
    14:00 +14°C° 0.7 mm 7 mps 734 mmHg 76%
    15:00 +12°C° 0.5 mm 7 mps 734 mmHg 76%
    16:00 +13°C° 0.5 mm 6 mps 734 mmHg 76%
    17:00 +13°C° 0.5 mm 6 mps 734 mmHg 76%
    18:00 +13°C° 0.3 mm 6 mps 734 mmHg 76%
    19:00 +11°C° 0.3 mm 6 mps 734 mmHg 76%
    20:00 +11°C° 0.3 mm 6 mps 734 mmHg 76%
    21:00 +11°C° 0.1 mm 7 mps 735 mmHg 75%
    22:00 +11°C° 0.1 mm 7 mps 735 mmHg 74%
    23:00 +11°C° 0.1 mm 7 mps 735 mmHg 73%

    Day after tomorrow, 25 February, Monday

    Time Temperature Precipitation Wind Pressure Humidity
    00:00 +11°C° 0.1 mm 7 mps 735 mmHg 74%
    01:00 +11°C° 0.1 mm 7 mps 735 mmHg 75%
    02:00 +11°C° 0.1 mm 8 mps 734 mmHg 76%
    03:00 +11°C° 0.1 mm 8 mps 734 mmHg 76%
    04:00 +11°C° 0.1 mm 8 mps 734 mmHg 75%
    05:00 +11°C° 0.1 mm 8 mps 733 mmHg 75%
    06:00 +11°C° 0 mm 8 mps 733 mmHg 73%
    07:00 +12°C° 0 mm 7 mps 733 mmHg 71%
    08:00 +12°C° 0 mm 7 mps 733 mmHg 69%
    09:00 +12°C° 0 mm 7 mps 732 mmHg 65%
    10:00 +14°C° 0 mm 7 mps 732 mmHg 62%
    11:00 +15°C° 0 mm 7 mps 731 mmHg 58%
    12:00 +15°C° 0.1 mm 7 mps 731 mmHg 56%
    13:00 +15°C° 0.1 mm 7 mps 730 mmHg 54%
    14:00 +15°C° 0.1 mm 7 mps 729 mmHg 53%
    15:00 +14°C° 0.6 mm 7 mps 729 mmHg 59%
    16:00 +13°C° 0.6 mm 6 mps 728 mmHg 66%
    17:00 +11°C° 0.6 mm 6 mps 728 mmHg 72%
    18:00 +11°C° 0.1 mm 7 mps 728 mmHg 73%
    19:00 +11°C° 0.1 mm 8 mps 727 mmHg 73%
    20:00 +11°C° 0.1 mm 9 mps 727 mmHg 73%
    21:00 +11°C° 0.5 mm 9 mps 727 mmHg 72%
    22:00 +12°C° 0.5 mm 9 mps 727 mmHg 71%
    23:00 +12°C° 0.5 mm 10 mps 726 mmHg 70%

    26 February, Tuesday

    Time Temperature Precipitation Wind Pressure Humidity
    00:00 +11°C° 3.7 mm 8 mps 726 mmHg 74%
    01:00 +10°C° 3.7 mm 6 mps 726 mmHg 79%
    02:00 +11°C° 3.7 mm 4 mps 726 mmHg 84%
    03:00 +11°C° 0.4 mm 3 mps 726 mmHg 81%
    04:00 +11°C° 0.4 mm 3 mps 726 mmHg 78%
    05:00 +11°C° 0.4 mm 3 mps 726 mmHg 74%
    06:00 +11°C° 0.1 mm 3 mps 726 mmHg 76%
    07:00 +11°C° 0.1 mm 3 mps 726 mmHg 77%
    08:00 +11°C° 0.1 mm 3 mps 727 mmHg 78%
    09:00 +12°C° 0.6 mm 2 mps 727 mmHg 75%
    10:00 +13°C° 0.6 mm 2 mps 728 mmHg 71%
    11:00 +14°C° 0.6 mm 1 mps 728 mmHg 67%
    12:00 +14°C° 0.2 mm 2 mps 728 mmHg 67%
    13:00 +14°C° 0.2 mm 2 mps 728 mmHg 67%
    14:00 +14°C° 0.2 mm 2 mps 727 mmHg 67%
    15:00 +13°C° 0 mm 3 mps 727 mmHg 70%
    16:00 +12°C° 0 mm 3 mps 727 mmHg 72%
    17:00 +12°C° 0 mm 4 mps 727 mmHg 75%
    18:00 +12°C° 0 mm 4 mps 727 mmHg 74%
    19:00 +11°C° 0 mm 4 mps 728 mmHg 74%
    20:00 +11°C° 0 mm 4 mps 728 mmHg 73%
    21:00 +10°C° 0 mm 5 mps 728 mmHg 74%
    22:00 +10°C° 0 mm 6 mps 728 mmHg 74%
    23:00 +10°C° 0 mm 6 mps 728 mmHg 74%

    27 February, Wednesday

    Time Temperature Precipitation Wind Pressure Humidity
    00:00 +9°C° 0 mm 6 mps 728 mmHg 75%
    01:00 +9°C° 0 mm 6 mps 728 mmHg 77%
    02:00 +8°C° 0 mm 6 mps 728 mmHg 78%
    03:00 +8°C° 0 mm 7 mps 727 mmHg 77%
    04:00 +8°C° 0 mm 7 mps 727 mmHg 76%
    05:00 +6°C° 0 mm 7 mps 727 mmHg 75%
    06:00 +8°C° 0 mm 7 mps 727 mmHg 74%
    07:00 +7°C° 0 mm 8 mps 727 mmHg 72%
    08:00 +7°C° 0 mm 8 mps 727 mmHg 71%
    09:00 +8°C° 0 mm 9 mps 727 mmHg 66%
    10:00 +8°C° 0 mm 10 mps 727 mmHg 61%
    11:00 +9°C° 0 mm 11 mps 727 mmHg 56%
    12:00 +9°C° 0 mm 11 mps 727 mmHg 56%
    13:00 +9°C° 0 mm 11 mps 727 mmHg 56%
    14:00 +10°C° 0 mm 12 mps 727 mmHg 56%
    15:00 +9°C° 0 mm 12 mps 727 mmHg 56%
    16:00 +9°C° 0 mm 12 mps 727 mmHg 56%
    17:00 +8°C° 0 mm 13 mps 727 mmHg 56%
    18:00 +7°C° 0 mm 13 mps 727 mmHg 56%
    19:00 +7°C° 0 mm 12 mps 728 mmHg 56%
    20:00 +5°C° 0 mm 12 mps 728 mmHg 56%
    21:00 +5°C° 0 mm 12 mps 728 mmHg 55%
    22:00 +6°C° 0 mm 11 mps 729 mmHg 55%
    23:00 +6°C° 0 mm 11 mps 729 mmHg 54%

    28 February, Thursday

    Time Temperature Precipitation Wind Pressure Humidity
    00:00 +5°C° 0 mm 10 mps 729 mmHg 55%
    01:00 +5°C° 0 mm 10 mps 729 mmHg 56%
    02:00 +5°C° 0 mm 10 mps 729 mmHg 57%
    03:00 +5°C° 0 mm 10 mps 729 mmHg 57%
    04:00 +4°C° 0 mm 11 mps 729 mmHg 58%
    05:00 +4°C° 0 mm 11 mps 729 mmHg 58%
    06:00 +4°C° 0 mm 11 mps 729 mmHg 59%
    07:00 +4°C° 0 mm 11 mps 730 mmHg 60%
    08:00 +4°C° 0 mm 11 mps 730 mmHg 61%
    09:00 +4°C° 0 mm 11 mps 730 mmHg 60%
    10:00 +6°C° 0 mm 10 mps 730 mmHg 58%
    11:00 +7°C° 0 mm 10 mps 731 mmHg 57%
    12:00 +7°C° 0 mm 10 mps 731 mmHg 55%
    13:00 +8°C° 0 mm 9 mps 731 mmHg 54%
    14:00 +8°C° 0 mm 9 mps 731 mmHg 52%
    15:00 +8°C° 0 mm 9 mps 731 mmHg 54%
    16:00 +9°C° 0 mm 8 mps 731 mmHg 55%
    17:00 +9°C° 0 mm 8 mps 731 mmHg 57%
    18:00 +9°C° 0 mm 8 mps 731 mmHg 59%
    19:00 +9°C° 0 mm 8 mps 732 mmHg 60%
    20:00 +7°C° 0 mm 8 mps 732 mmHg 62%
    21:00 +8°C° 0 mm 7 mps 732 mmHg 62%
    22:00 +8°C° 0 mm 7 mps 732 mmHg 61%
    23:00 +8°C° 0 mm 7 mps 732 mmHg 61%
    Show more